Starlink 3146

operational
NORAD ID: 49414 Int'l Des: 2021-104 Owner: SPXS Country: US Constellation: starlink
LEOCIRCULAR

关于 Starlink 3146

正在加载描述...

实时位置

正在加载3D地球...

即将过境

高度历史

Altitude vs Time

uPlot chart will show altitude changes over time

两行轨道根数

1 49414U 21104G 25257.38454171 -.00000993 00000-0 -44317-4 0 9990
2 49414 53.2181 300.5885 0001428 82.8928 277.2227 15.08837858212013
Epoch: Sep 14, 2025 • Age: 25 hours

当前状态

高度 546.0 km
速度 7.59 km/s
星下点 -21.08°S, 126.33°E
发射日期 Nov 13, 2021
运行时间 3.8 years
类型 internet

技术详情

分类 Payload
质量 290.00 kg
干质量 270.00 kg
总质量 290.00 kg
长度 0.20 m
直径 2.80 m
跨度 9.00 m
形状 Box + pan
制造商 SPXS
平台类型 Starlink
阶段状态 In Orbit
所有者/国家 SPXS/US

大型星座

Loading constellations...